Regional Weather Roundup
Issued by NWS

Home | Current Version | Previous Version | Text Only | Print | Product List | Glossary Off
Versions: 1 2 3 4 5 6 7 8 9 10 11 12 13 14 15 16 17 18 19 20 21 22 23 24 25 26 27 28 29 30 31 32 33 34 35 36 37 38 39 40 41 42 43 44 45 46 47 48 49 50

000
ASUS43 KLSX 061259
RWRMO

WEATHER SUMMARY FOR MISSOURI
NATIONAL WEATHER SERVICE SPRINGFIELD MO
700 AM CST FRI MAR 06 2015

NOTE: "FAIR" INDICATES FEW OR NO CLOUDS BELOW 12,000 FEET WITH NO
       SIGNIFICANT WEATHER AND/OR OBSTRUCTIONS TO VISIBILITY.
       CURRENT SKY AND/OR WEATHER CONDITIONS ARE NOT AVAILABLE FOR
       CHILLICOTHE AND FARMINGTON.

MOZ001>031-035>038-043-044-053-054-061400-
...NORTHERN AND WESTERN MISSOURI...

CITY           SKY/WX    TMP DP  RH WIND       PRES   REMARKS
KANSAS CTY INT PTCLDY    29  18  63 SW17      30.28F WCI  17
KANSAS C DTWN  CLEAR     33  17  51 SW20G26   30.30F WCI  21
LEE`S SUMMIT   CLEAR     26  17  68 S13       30.31F WCI  15
ST JOSEPH      FAIR      26  18  71 S7        30.28S WCI  18
CHILLICOTHE      N/A     26  15  63 S12       30.30F WCI  16
KIRKSVILLE     CLOUDY    21  12  68 S13       30.31F WCI   9

$$
MOZ066>068-077>081-088>096-101>105-061400-
...SOUTHWEST MISSOURI...

CITY           SKY/WX    TMP DP  RH WIND       PRES   REMARKS
SPRINGFIELD    CLEAR     21  13  71 S13       30.43F WCI   9
JOPLIN         CLEAR     29  17  61 SW15      30.45F WCI  18

$$
MOZ032>034-039>042-045>050-055>058-069>072-061400-
...CENTRAL MISSOURI...

CITY           SKY/WX    TMP DP  RH WIND       PRES   REMARKS
COLUMBIA       CLEAR     20  10  65 S13       30.40F WCI   7
JEFFERSON CITY CLEAR     19   9  65 E8        30.45F WCI   9
ROLLA          CLEAR     20   8  60 S13       30.43F WCI   7
SEDALIA        CLEAR     27  14  58 SW16G25   30.37F WCI  15
OSAGE BEACH    CLEAR     19   9  63 S7        30.43F WCI  10

$$
MOZ051-052-059>065-061400-
...EAST CENTRAL MISSOURI...

CITY           SKY/WX    TMP DP  RH WIND       PRES   REMARKS
ST LOUIS INTL  CLEAR     17   7  64 S9        30.52S WCI   6
SPIRIT OF STL  CLEAR     16   8  71 CALM      30.51S
ST CHARLES     CLEAR      9   4  80 SE3       30.52S

$$
MOZ072>076-082>087-097>100-106>115-061400-
...SOUTH CENTRAL AND SOUTHEAST MISSOURI...

CITY           SKY/WX    TMP DP  RH WIND       PRES   REMARKS
CAPE GIRARDEAU FOG       -2  -4  91 CALM      30.60S VSB 3/4
FARMINGTON     PTCLDY    10   7  85 SE6       30.54R WCI   1
POPLAR BLUFF   PTCLDY    10   5  80 CALM      30.60S
WEST PLAINS    PTCLDY    16   6  65 S7        30.50F WCI   6

$$


USA.gov is the U.S. government's official web portal to all federal, state and local government web resources and services.